Location: Lake Almanor
(40.2485°N, 121.1442°W)
Time: 16:33:58
(UTC-08:00)

STARLINK-1107 - Pass Details

Date: 29 January 2020
Orbit: 345 x 354 km, 53.0° (Epoch: 17 February)

Event Time Altitude Azimuth Distance (km) Brightness Sun altitude
Rises 18:55:16 0° 315° (NW) 2,180 7.2 -18.4°
Reaches altitude 10° 18:57:25 10° 325° (NW) 1,333 5.9 -18.8°
Enters shadow 18:59:01 24° 348° (NNW) 793 4.4 -19.1°
